This demonstration page uses our WeatherBlox Daily Observations layout. Learn more.

Left ArrowRight Arrow

Hourly Observations for July 20, 2017

Temp ( °F °C ) Dew Point ( °F °C ) Humidity (%) Winds ( mph kmh ) Pressure ( in mb ) Visibility ( mi km ) Precip ( " mm )
12:53 am 00:53 Clear 76 24.4 39 3.9 26 26 ENE 5 7 29.89 1012 10 16 0.00 0.00
1:53 am 01:53 Clear 74 23.3 38 3.3 27 27 NE 3 6 29.90 1013 10 16 0.00 0.00
2:53 am 02:53 Clear 71 21.7 43 6.1 36 36 Calm 29.91 1013 10 16 0.00 0.00
3:53 am 03:53 Clear 67 19.4 44 6.7 44 44 Calm 29.92 1013 10 16 0.00 0.00
4:53 am 04:53 Clear 66 18.9 45 7.2 47 47 Calm 29.93 1014 10 16 0.00 0.00
5:53 am 05:53 Clear 65 18.3 46 7.8 51 51 Calm 29.96 1015 10 16 0.00 0.00
6:53 am 06:53 Sunny 66 18.9 49 9.4 54 54 N 5 7 29.97 1015 10 16 0.00 0.00
7:53 am 07:53 Sunny 75 23.9 49 9.4 40 40 N 6 9 29.98 1015 10 16 0.00 0.00
8:53 am 08:53 Sunny 78 25.6 51 10.6 39 39 N 5 7 29.98 1015 10 16 0.00 0.00
9:53 am 09:53 Sunny 83 28.3 48 8.9 30 30 N 5 7 29.98 1015 10 16 0.00 0.00
10:53 am 10:53 Sunny 86 30 46 7.8 25 25 Calm 29.97 1015 10 16 0.00 0.00
11:53 am 11:53 Sunny 91 32.8 45 7.2 20 20 N 3 6 29.96 1015 10 16 0.00 0.00
12:53 pm 12:53 Sunny 92 33.3 40 4.4 16 16 SW 6 9 29.95 1014 10 16 0.00 0.00
1:53 pm 13:53 Sunny 95 35 30 -1.1 10 10 SSE 6 9 29.93 1013 10 16 0.00 0.00
2:53 pm 14:53 Sunny 96 35.6 38 3.3 13 13 S 9 15 29.91 1013 10 16 0.00 0.00
3:53 pm 15:53 Sunny 98 36.7 32 0 10 10 SSE 8 13 29.88 1012 10 16 0.00 0.00
4:53 pm 16:53 Sunny 99 37.2 35 1.7 11 11 ESE 7 11 29.86 1011 10 16 0.00 0.00
5:53 pm 17:53 Sunny 98 36.7 38 3.3 12 12 S 10 17 29.84 1011 10 16 0.00 0.00
6:53 pm 18:53 Sunny 97 36.1 42 5.6 15 15 SSE 13 20 29.84 1011 10 16 0.00 0.00
7:53 pm 19:53 Sunny 93 33.9 49 9.4 22 22 SSE 9 15 29.85 1011 10 16 0.00 0.00
8:53 pm 20:53 Clear 87 30.6 47 8.3 25 25 SSE 7 11 29.85 1011 10 16 0.00 0.00
9:53 pm 21:53 Clear 83 28.3 47 8.3 28 28 WNW 5 7 29.88 1012 10 16 0.00 0.00
10:53 pm 22:53 Clear 82 27.8 51 10.6 34 34 Calm 29.88 1012 10 16 0.00 0.00
11:53 pm 23:53 Clear 77 25 51 10.6 40 40 E 6 9 29.89 1012 10 16 0.00 0.00

Powered by AerisWeather